KINEIS-2B

Last updated on Thu Sep 24 2026 00:03:12 GMT+0000 (Coordinated Universal Time)

1 62934U 25028G 26266.40172926 .00000782 00000+0 12779-3 0 9999 2 62934 97.9574 317.4452 0003518 174.2325 185.8924 14.73583462 87122
UTC large
Height (km)
Speed (km/s)
/
Latitude / Longitude
Inclination (degrees)
Orbital Period (minutes)
Azimuth
Elevation
Range (km)
Doppler Factor

Next 0 passes for location: London (51.5072 / 0.1276)

No passes found over London.
KINEIS-2B